Flag for Germany Weather past 2 weeks in Ehingen (Donau), Baden-Württemberg, Germany

Now
64 °F

Broken clouds.


Feels Like: 64 °F
Forecast: 49 / 68 °F
Wind: 6 mph from Southwest

Location: Laupheim Airport

Current Time: Apr 26, 2015 at 3:33:26 PM

Latest Report: Apr 26, 2015 at 2:20 PM


Visibility: N/A

Pressure: 29.80 "Hg

Humidity: 52%

Dew point: 46 °F

Location of Ehingen (Donau)Location

Historic Weather in Ehingen (Donau) — Graph

°F

Ehingen (Donau) temperature yesterday

Maximum temperature yesterday: 66 °F (at 1:20 PM)
Minimum temperature yesterday: 39 °F (at 5:20 AM)
Average temperature yesterday: 52 °F

Past Weeks' High & Low Weather Summary

 TemperatureHumidityPressure
High73 °F (Apr 15, 4:20 PM)100% (Apr 17, 6:20 PM)30.45 "Hg (Apr 17, 6:20 PM)
Low30 °F (Apr 19, 5:20 AM)17% (Apr 15, 5:00 PM)29.80 "Hg (Apr 26, 1:20 PM)
Average52 °F61%30.15 "Hg
* Reported Apr 11 2:20 PM — Apr 26 2:20 PM, Ehingen (Donau), Weather by CustomWeather, © 2015

Note: Actual official high and low records may vary slightly from our data, if they occured in-between our weather recording intervals... More about our weather records

Advertising

Ehingen (Donau) weather history for previous 24 hours

 ConditionsComfort  
Time TempWeatherWind HumidityBarometerVisibility
2:20 PM
Sun, Apr 26
64 °FBroken clouds.6 mph52%29.80 "HgN/A
1:20 PM64 °FPartly sunny.5 mph56%29.80 "HgN/A
12:20 PM61 °FPartly sunny.6 mph63%29.83 "HgN/A
11:20 AM59 °FScattered clouds.8 mph72%29.86 "HgN/A
10:20 AM57 °FScattered clouds.7 mph77%29.86 "HgN/A
9:20 AM54 °FPartly sunny.7 mph88%29.86 "HgN/A
8:20 AM52 °FPartly sunny.8 mph88%29.86 "HgN/A
7:20 AM52 °FPartly sunny.6 mph88%29.89 "HgN/A
6:20 AM50 °FPassing clouds.5 mph94%29.86 "HgN/A
5:50 AM50 °FPassing clouds.3 mph94%29.86 "HgN/A
5:20 AM50 °FPartly cloudy.5 mph94%29.86 "HgN/A
4:20 AM52 °FPassing clouds.7 mph94%29.89 "HgN/A
3:20 AM52 °FPartly cloudy.6 mph94%29.89 "HgN/A
2:20 AM52 °FRain. Passing clouds.9 mph94%29.89 "Hg6 mi
1:20 AM52 °FPassing clouds.10 mph94%29.89 "HgN/A
12:20 AM52 °FLight rain. Partly cloudy.7 mph94%29.89 "HgN/A
11:20 PM
Sat, Apr 25
54 °FPartly cloudy.8 mph88%29.89 "HgN/A
10:20 PM54 °FPassing clouds.5 mph88%29.89 "HgN/A
9:20 PM54 °FPartly sunny.6 mph88%29.89 "HgN/A
8:20 PM54 °FLight rain. Partly sunny.5 mph88%29.89 "HgN/A
7:20 PM55 °FPartly sunny.6 mph88%29.89 "HgN/A
6:20 PM55 °FLight rain. Partly sunny.8 mph82%29.89 "HgN/A
5:20 PM59 °FLight rain. Broken clouds.14 mph63%29.89 "HgN/A
4:20 PM61 °FBroken clouds.12 mph59%29.89 "HgN/A
3:20 PM63 °FBroken clouds.12 mph52%29.89 "HgN/A
Weather by CustomWeather, © 2015

See weather overviewHow to use our weather pages